Henderson, NV

8:35 AM PDT on June 25, 2017 (GMT -0700)
Henderson

Weather History for KHND - July, 2013

Change the Weather History Date:

Sunday, July 7, 2013

  Actual Average (KLAS) Record (KLAS)
Temperature  
Mean Temperature 91 °F -  
Max Temperature 101 °F 103 °F 114 °F (1989)
Min Temperature 81 °F 76 °F 62 °F (1939)
Cooling Degree Days 26    
Growing Degree Days 41 (Base 50)    
Moisture  
Dew Point 53 °F    
Average Humidity 30    
Maximum Humidity 52    
Minimum Humidity 18    
Precipitation  
Precipitation 0.56 in - - ()
Sea Level Pressure  
Sea Level Pressure 29.75 in    
Wind  
Wind Speed 9 mph (SSE)    
Max Wind Speed 16 mph    
Max Gust Speed 40 mph    
Visibility 8 miles    
Events Rain    
Averages and records for this station are not official NWS values.
T = Trace of Precipitation, MM = Missing Value Source: NWS Daily Summary

Daily Weather History Graph

Daily Weather History Graph

Search for Another Location

Airport or City:

Trip Planner

Search our weather history database for the weather conditions in past years. The results will help you decide how hot, cold, wet, or windy it might be!

Date:

Astronomy

Jul. 07, 2013 Rise Set
Actual Time 5:30 AM PDT 8:00 PM PDT
Civil Twilight 5:00 AM PDT 8:29 PM PDT
Nautical Twilight 4:23 AM PDT 9:06 PM PDT
Astronomical Twilight 3:43 AM PDT 9:47 PM PDT
Moon 5:08 AM PDT (7/7) 7:29 PM PDT (7/7)
Length of Visible Light 15h 29m
Length of Day
14h 29m
Waning Crescent, 0% of the Moon is Illuminated
Jul 7
Waning Crescent
Jul 8
New
Jul 15
First Quarter
Jul 22
Full
Jul 29
Last Quarter

Hourly Weather History & Observations

Time (PDT) Temp. Heat Index Dew Point Humidity Pressure Visibility Wind Dir Wind Speed Gust Speed Precip Events Conditions
12:56 AM 91.9 °F - 43.9 °F 19% 29.68 in 10.0 mi SSW 10.4 mph - N/A   Clear
1:56 AM 90.9 °F - 43.9 °F 20% 29.69 in 10.0 mi South 10.4 mph - N/A   Clear
2:56 AM 88.9 °F - 43.9 °F 21% 29.68 in 10.0 mi SSE 8.1 mph - N/A   Clear
3:56 AM 88.0 °F - 43.9 °F 21% 29.68 in 10.0 mi South 9.2 mph - N/A   Clear
4:56 AM 86.0 °F - 45.0 °F 24% 29.70 in 10.0 mi SSE 9.2 mph - N/A   Clear
5:56 AM 82.9 °F 82.1 °F 55.9 °F 39% 29.71 in 10.0 mi SW 6.9 mph - 0.00 in Rain Light Rain
6:56 AM 82.9 °F - 52.0 °F 34% 29.74 in 10.0 mi South 6.9 mph - 0.00 in   Clear
7:56 AM 86.9 °F - 50.0 °F 28% 29.76 in 10.0 mi NNW 5.8 mph - N/A   Partly Cloudy
8:56 AM 88.0 °F - 50.9 °F 28% 29.78 in 10.0 mi Calm Calm - 0.00 in   Scattered Clouds
9:56 AM 92.8 °F - 50.9 °F 24% 29.77 in 10.0 mi NE 5.8 mph - N/A   Clear
10:56 AM 95.9 °F - 50.9 °F 22% 29.77 in 10.0 mi Variable 6.9 mph - N/A   Clear
11:56 AM 99.0 °F - 50.0 °F 19% 29.75 in 10.0 mi North 6.9 mph - N/A   Clear
12:14 PM 91.4 °F 91.4 °F 60.8 °F 36% 29.86 in 10.0 mi WSW 13.8 mph 19.6 mph 0.02 in Rain Heavy Rain
12:22 PM 84.2 °F 83.5 °F 57.2 °F 40% 29.87 in 2.0 mi West 11.5 mph 40.3 mph 0.14 in Rain Heavy Rain
12:25 PM 84.2 °F 82.8 °F 53.6 °F 35% 29.87 in 1.2 mi WSW 9.2 mph 40.3 mph 0.31 in Rain Heavy Rain
12:27 PM 82.4 °F 81.7 °F 55.4 °F 39% 29.86 in 0.8 mi WSW 11.5 mph 40.3 mph 0.38 in Rain Heavy Rain
12:30 PM 82.4 °F 81.7 °F 55.4 °F 39% 29.85 in 1.0 mi WNW 9.2 mph 24.2 mph 0.40 in Rain Heavy Rain
12:35 PM 84.2 °F 83.5 °F 57.2 °F 40% 29.86 in 1.5 mi SSE 16.1 mph 29.9 mph 0.47 in Rain Heavy Rain
12:38 PM 82.4 °F 82.5 °F 59.0 °F 45% 29.86 in 3.0 mi ESE 16.1 mph 29.9 mph 0.49 in Rain Heavy Rain
12:56 PM 81.0 °F 81.9 °F 61.9 °F 52% 29.75 in 10.0 mi ENE 12.7 mph - 0.56 in Rain Heavy Rain
1:03 PM 82.4 °F 83.4 °F 62.6 °F 51% 29.83 in 10.0 mi ENE 5.8 mph - 0.00 in   Overcast
1:56 PM 91.9 °F 91.8 °F 61.0 °F 35% 29.72 in 10.0 mi ENE 9.2 mph - 0.00 in   Partly Cloudy
2:56 PM 97.0 °F 95.0 °F 54.9 °F 24% 29.70 in 10.0 mi North 8.1 mph - 0.00 in   Clear
3:56 PM 99.9 °F 99.0 °F 56.8 °F 24% 29.68 in 10.0 mi Variable 3.5 mph - N/A   Clear
4:56 PM 101.8 °F - 52.9 °F 19% 29.65 in 10.0 mi ENE 4.6 mph - N/A   Clear
5:56 PM 101.8 °F - 52.9 °F 19% 29.65 in 10.0 mi NE 5.8 mph - N/A   Clear
6:56 PM 100.9 °F 99.1 °F 54.0 °F 21% 29.65 in 10.0 mi NNE 3.5 mph - N/A   Clear
7:56 PM 99.0 °F - 48.9 °F 18% 29.67 in 10.0 mi West 4.6 mph - N/A   Clear
8:56 PM 90.9 °F - 52.0 °F 26% 29.69 in 10.0 mi SSE 6.9 mph - N/A   Clear
9:56 PM 88.0 °F - 50.0 °F 27% 29.71 in 10.0 mi SSE 9.2 mph - N/A   Clear
10:56 PM 86.0 °F - 50.0 °F 29% 29.73 in 10.0 mi SSE 10.4 mph - N/A   Clear
11:56 PM 84.9 °F - 46.9 °F 27% 29.74 in 10.0 mi SSW 8.1 mph - 0.00 in   Clear